星链-35728(STARLINK-35728)

导读

STARLINK-35728是美国太空探索技术公司SpaceX星链(Starlink)卫星互联网项目的一员,于2025年11月19日发射入轨。该卫星运行在近地轨道,属于星链大规模低轨星座组网的一部分,旨在为全球提供高速低延迟宽带互联网服务,重点覆盖传统网络难以接入的偏远地区、海洋及空域,助力缩小数字鸿沟。星链项目计划总计部署超4万颗卫星,STARLINK-35728的成功发射进一步扩充了星链星座的服务覆盖能力与网络容量,推动全球卫星互联网建设持续推进。

基本信息
目录编号:
66544
目录名称:
STARLINK-35728
国际标识:
2025-265AE
轨道中心:
EARTH
卫星名称:
星链-35728
卫星全名:
星链-35728(STARLINK-35728)
卫星状态:
在轨 (已飞行206 天)
发射日期:
2025-11-19 UTC
国别 :
美国 (US)
星等 :
--
轨道信息
数据来源 国际轨道数据
星历时间: 2026-06-11T21:40:33+0800
1天前
查看轨道信息
半长轴: 6861.164km
偏心率: 0.0001937
轨道倾角: 43.007°
近地点辐角 277.810°
升交点赤经 107.530°
平近点角 82.254°
近地点: 481.697km
远地点: 484.357km
周期: 94.266分钟
每日圈数: 15.275877
详细信息
固有亮度:
5
最大亮度:
2.5
卫星平台:
Starlink V1.0
覆盖范围:
全球
运营商:
太空探索技术公司
运营商所在国:
美国
制造商(研发单位):
太空探索技术公司
制造商所在国:
美国
使用方式:
暂无
卫星简介
Starlink 计划是 SpaceX 推出的全球卫星互联网项目,通过发射低轨道卫星,为全球尤其是偏远地区提供高速、低延迟的互联网服务。自 2019 年起,Starlink 已部署数千颗卫星,旨在缩小全球数字鸿沟,推动互联网普及。该项目还为军事、航空等行业提供通信支持,带来广泛经济效益。
2D轨道图
3D轨道图
轨道高度分析图
轨道倾角分析图
轨道综合分析图
查看轨道综合分析图